AirNav   TITAN Aviation Fuels
 
 1094 users online  

3H4 Hillsboro Municipal Airport
Hillsboro, North Dakota, USA

GOING TO HILLSBORO?


FAA INFORMATION EFFECTIVE 22 APRIL 2021

Location

FAA Identifier: 3H4
Lat/Long: 47-21-33.8680N 097-03-37.4990W
47-21.564467N 097-03.624983W
47.3594078,-97.0604164
(estimated)
Elevation: 906.1 ft. / 276.2 m (surveyed)
Variation: 05E (2000)
From city: 3 miles S of HILLSBORO, ND
Time zone: UTC -5 (UTC -6 during Standard Time)
Zip code: 58045

Airport Operations

Airport use: Open to the public
Activation date: 08/1977
Control tower: no
ARTCC: MINNEAPOLIS CENTER
FSS: GRAND FORKS FLIGHT SERVICE STATION
NOTAMs facility: GFK (NOTAM-D service available)
Attendance: MON-FRI 0800-1700
AFT HRS ON CALL 701-400-1113
Wind indicator: yes
Segmented circle: no
Lights: ACTVT PAPI RWYS 16 & 34; MIRL RWY 16/34 - CTAF.

Airport Communications

CTAF: 122.9
FARGO APPROACH: 120.4 [OPR H24 FM 1200Z++MON THRU 0530Z++SAT; SAT AND SUN 1200-0530Z++; CLSD HOL.]
FARGO DEPARTURE: 120.4 [OPR H24 FM 1200Z++MON THRU 0530Z++SAT; SAT AND SUN 1200-0530Z++; CLSD HOL.]

Nearby radio navigation aids

VOR radial/distance  VOR name  Freq  Var
GFKr163/36.1GRAND FORKS VOR/DME114.3009E
FARr338/37.4FARGO VOR/DME116.2009E

Airport Services

Fuel available: 100LL
24 HOUR SELF SERVICE CREDIT CARD FUEL AVBL.
Parking: hangars and tiedowns
Airframe service: MAJOR
Powerplant service: MAJOR

Runway Information

Runway 16/34

Dimensions: 3301 x 60 ft. / 1006 x 18 m
Surface: concrete, in good condition
Weight bearing capacity: 
Single wheel: 12.5
Runway edge lights: medium intensity
RUNWAY 16  RUNWAY 34
Latitude: 47-21.832328N47-21.296492N
Longitude: 097-03.689462W097-03.560623W
Elevation: 905.5 ft.905.7 ft.
Traffic pattern: leftleft
Runway heading: 166 magnetic, 171 true346 magnetic, 351 true
Markings: nonprecision, in good conditionnonprecision, in good condition
Visual slope indicator: 2-light PAPI on left (3.00 degrees glide path)2-light PAPI on left (3.00 degrees glide path)
Runway end identifier lights: nono
Touchdown point: yes, no lightsyes, no lights

Airport Ownership and Management from official FAA records

Ownership: Publicly-owned
Owner: HILLSBORO MUNI ARPT AUTH
BOX 242
HILLSBORO, ND 58045
Phone (701) 430-1642
LARRY MUELLER - CHAIRMAN OF THE AIRPORT AUTHORITY
Manager: LARRY MUELLER
BOX 242
HILLSBORO, ND 58045
Phone (701) 430-1642

Airport Operational Statistics

Aircraft based on the field: 22
Single engine airplanes: 22
    
Aircraft operations: avg 58/day *
52% transient general aviation
47% local general aviation
1% air taxi
<1% military
* for 12-month period ending 19 September 2019

Additional Remarks

FOR SNOW REMOVAL OR WINTER CONDS CALL ARPT 701-400-1113 OR 701-430-1642
AERIAL SPRAYING OPNS MAY-AUG INVOF ARPT.
FOR CD CTC FARGO APCH AT 701-235-8894.

Instrument Procedures

NOTE: All procedures below are presented as PDF files. If you need a reader for these files, you should download the free Adobe Reader.

NOT FOR NAVIGATION. Please procure official charts for flight.
FAA instrument procedures published for use from 22 April 2021 at 0901Z to 20 May 2021 at 0900z.

 
IAPs - Instrument Approach Procedures
RNAV (GPS) RWY 16   download (183KB)
RNAV (GPS) RWY 34   download (191KB)
NOTE: Special Take-Off Minimums/Departure Procedures apply   download (223KB)

Other nearby airports with instrument procedures:

D00 - Norman County Ada/Twin Valley Airport (28 nm E)
KFAR - Hector International Airport (28 nm S)
4V4 - Northwood Municipal Airport-Vince Field (31 nm NW)
5N8 - Casselton Robert Miller Regional Airport (31 nm S)
KCKN - Crookston Municipal Airport Kirkwood Field (34 nm NE)
 
Loc | Ops | Rwys | IFR | FBO | Links
Com | Nav | Svcs | Stats | Notes

Bismarck Aero Center
AirBoss

 
Area around 3H4 (Hillsboro Municipal Airport)
 
Road maps at: MapQuest Bing Google
 
Aerial photo
WARNING: Photo may not be current or correct
Aerial photo of 3H4 (Hillsboro Municipal Airport)
Do you have a better or more recent aerial photo of Hillsboro Municipal Airport that you would like to share? If so, please send us your photo.

 
Sectional chart

 
Airport distance calculator
Flying to Hillsboro Municipal Airport? Find the distance to fly.

From to 3H4

Sunrise and sunset
Times for 13-May-2021
 Local
(UTC-5)
 Zulu
(UTC)
Morning civil twilight05:1910:19
Sunrise05:5510:55
Sunset20:5401:54
Evening civil twilight21:3002:30

Current date and time
Zulu (UTC)  14-May-2021 00:40:09
Local (UTC-5)  13-May-2021 19:40:09
 
METAR
KFAR 
27nm S 
132353Z 14015G23KT 10SM FEW080 18/03 A3009 RMK AO2 PK WND 14030/2331 SLP191 60000 T01830033 10239 20183 55005
KCKN 
34nm NE 
140015Z AUTO 10003KT 10SM SCT090 18/02 A3007 RMK AO2
KJKJ 
35nm SE 
140015Z AUTO 24010G19KT 5SM DZ SCT004 SCT020 BKN050 18/03 A3012 RMK AO2
KGFK 
36nm N 
132353Z 16013KT 10SM SCT130 BKN160 19/00 A3004 RMK AO2 PK WND 19026/2309 LTG DSNT W AND NW SLP176 60005 T01940000 10228 20178 56010
KRDR 
39nm N 
132356Z 23006KT 10SM VCTS FEW021 SCT060 OVC080CB 17/08 A3005 RMK AO2A PK WND 19031/23 LTG DSNT NW RAB26E36 TSB32E56 SLP184 P0000 60000 T01710077 10235 20166 55004 $
KS32 
43nm W 
140015Z AUTO 18014KT 150V210 10SM CLR 18/04 A3005 RMK AO2 TSNO
KBAC 
46nm SW 
132155Z AUTO 20013G23KT 10SM CLR 18/06 A3009 RMK AO2
K3N8 
46nm E 
140015Z AUTO 18007KT 10SM SCT110 18/02 A3011 RMK AO2 T01820019
TAF
KFAR 
27nm S 
132217Z 1322/1418 17016G25KT P6SM VCSH FEW090 FM140200 17010KT P6SM FEW150
NOTAMs
Click for the latest NOTAMs
NOTAMs are issued by the DoD/FAA and will open in a separate window not controlled by AirNav.

 

 
 

FBO, Fuel Providers, and Aircraft Ground Support

  
 Business Name 
 
 Contact 
 
 Services / Description 
 
Fuel Prices
 
Comments
  
On-Site Aviation, Inc. 701-400-1113
no information available

If you are affiliated with On-Site Aviation, Inc. and would like to show here your services, contact info, web link, logo, and more, click here
100LL
SS $4.55 
 Updated 13-May-2021
 
   write
SS=Self service
Update Fuel Prices
 

Would you like to see your business listed on this page?

 If your business provides an interesting product or service to pilots, flight crews, aircraft, or users of the Hillsboro Municipal Airport, you should consider listing it here.  To start the listing process, click on the button below
 
Add a business
 

Other Pages about Hillsboro Municipal Airport

www.rrv.net/airport
 
Update a link
 
Copyright © AirNav, LLC. All rights reserved. Privacy Policy  Contact